Location: Doux
(49.5045°N, 4.4321°E)
Time: 14:29:27
(UTC+00:00)

Cosmos 1703 - Pass Details

Date: 23 May 2024
Orbit: 486 x 499 km, 82.5° (Epoch: 16 June)

Event Time Altitude Azimuth Distance (km) Brightness Sun altitude
Exits shadow 02:00:07 13° 169° (S) 1,508 5.1 -13.2°
Maximum altitude 02:03:16 52° 95° (E) 635 3.8 -12.9°
Drops below altitude 10° 02:06:55 10° 19° (NNE) 1,715 7.2 -12.6°
Sets 02:09:04 0° 15° (NNE) 2,601 8.2 -12.3°
